Hourly Data Report for June 24, 2004

SHERBROOKE A
QUEBEC

45°26'00.000" N
71°41'00.000" W
241.40 m
7028124
71610
YSC

Download Data

Hourly Data (June 2004)
Hourly Data Report for June 24, 2004
TIME
LST
Temp Definition
°C
Dew Point Definition
°C
Rel Hum Definition
%
Precip. Amount Definition
mm

Wind Dir Definition
10's deg

Wind Spd Definition
km/h
Visibility Definition
km
Stn Press Definition
kPa
Hmdx Definition


Wind Chill Definition


Weather Definition


00:00 9.0 7.9 93     0 15.0 98.71      
01:00 9.4 8.2 92   9 4 15.0 98.70      
02:00 9.0 7.6 91   8 6 15.0 98.69      
03:00 7.9 6.7 92     0 15.0 98.75      
04:00 7.3 6.0 91   9 4 15.0 98.76      
05:00 9.0 7.8 92   9 7 15.0 98.77      
06:00 12.0 9.6 85   7 7 15.0 98.78      
07:00 15.7 11.3 75   8 11 24.1 98.79     Mainly Clear
08:00 20.0 13.7 67   9 7 24.1 98.75     Clear
09:00 23.0 11.1 47   18 11 24.1 98.71 25   Mainly Clear
10:00 24.2 11.6 45   19 19 24.1 98.71 26   Mainly Clear
11:00 24.4 11.3 44   19 20 24.1 98.66 26   Mainly Clear
12:00 26.1 8.9 34   20 28 24.1 98.64 27   Mainly Clear
13:00 26.3 8.3 32   18 22 24.1 98.55 27   Mainly Clear
14:00 27.0 8.9 32   19 19 24.1 98.53 28   Mostly Cloudy
15:00 26.1 10.5 38   19 22 24.1 98.52 28   Mostly Cloudy
16:00 27.2 11.6 38   20 20 24.1 98.51 29   Mostly Cloudy
17:00 26.5 11.7 40   19 17 15.0 98.45 29    
18:00 25.0 12.5 46   17 15 15.0 98.53 28    
19:00 23.5 12.6 50   17 15 15.0 98.49 26    
20:00 22.4 12.9 55   16 17 15.0 98.48 25    
21:00 21.4 13.2 60   17 19 15.0 98.47      
22:00 21.2 13.1 60   17 20 15.0 98.43      
23:00 21.2 13.2 60   18 20 15.0 98.36      

Notes on Data Quality.

Legend

  • E = Estimated
  • M = Missing
  • NA = Not Available*
  • [empty] = Indicates an unobserved value
Date modified: